Powrót do katalogu

UFO 2

USA 95

AktywnyMilitariaGEO
NORAD 22787·PAYLOAD·🇺🇸 United States

Wystrzelony Sep 3, 1993 z Cape Canaveral Space Force Station

Loading…

TLE

ŚwieżeSource: Space-Track

Epoka: Sep 14, 2026, 00:08 UTC

1 22787U 93056A   26257.00586551  .00000118  00000-0  00000-0 0  9991
2 22787  11.9265   3.0474 0002284 243.9725 136.7523  1.00270145119444

Śledź UFO 2 w czasie rzeczywistym z AllMySat

Download on the App Store